User: anonymous   Login
Location: Heilwood
(40.6210°N, 78.9150°W)
Time: 16:22:14
(UTC-05:00)
Language:

Iridium 4 Rocket - Orbit

View from above orbital plane
View from above orbital plane
View from above satellite
View from above satellite

Ground track
Ground track

The orbit data is extracted from the following two-line orbital elements,

1 24797U 97020F   16043.91633025 +.00000764 +00000-0 +15783-3 0  9994
2 24797 086.9009 172.8915 0226976 151.3199 328.0906 14.43813686987205
Epoch (UTC): 12 February 2016 21:59:30
Eccentricity: 0.0226976
inclination: 86.9009°
perigee height: 584 km
apogee height: 907 km
right ascension of ascending node: 172.8915°
argument of perigee: 151.3199°
revolutions per day: 14.43813686
mean anomaly at epoch: 328.0906°
orbit number at epoch: 98720

The dashed part of the orbit path shows where the satellite is in the earth's shadow,  

DLR